GW2569 Weather Reports


Display with metric or nautical units.
time (UTC)temp
F
wind
direction
speed
MPH
gust
MPH
rain 1hr
in
rain 24hr
in
rain mn
in
humidity
%
barometer
mb
20260903113056 81 71 2.0 8.0 0.00 0.00 0.00 87 1013.6
20260903112541 81 79 3.0 8.0 0.00 0.00 0.00 87 1013.5
20260903112040 81 71 2.0 4.0 0.00 0.00 0.00 88 1013.5
20260903111557 80 0 1.0 3.0 0.00 0.00 0.00 89 1013.4
20260903111041 80 0 0.0 2.0 0.00 0.00 0.00 89 1013.4
20260903110540 80 82 0.0 4.0 0.00 0.00 0.00 89 1013.5
20260903105536 80 9 1.0 5.0 0.00 0.00 0.00 89 1013.4
20260903105042 80 58 1.0 5.0 0.00 0.00 0.00 89 1013.4
20260903104558 80 0 1.0 5.0 0.00 0.00 0.00 90 1013.4
20260903104042 80 0 0.0 5.0 0.00 0.00 0.00 90 1013.4
20260903103543 80 43 1.0 5.0 0.00 0.00 0.00 90 1013.4
20260903103101 80 0 1.0 5.0 0.00 0.00 0.00 90 1013.5
20260903102540 81 0 1.0 5.0 0.00 0.00 0.00 90 1013.4
20260903102043 81 65 1.0 6.0 0.00 0.00 0.00 90 1013.5
20260903101604 81 101 2.0 7.0 0.00 0.00 0.00 90 1013.5
20260903101037 81 70 2.0 7.0 0.00 0.00 0.00 90 1013.5
20260903100540 81 63 2.0 7.0 0.00 0.00 0.00 90 1013.5
20260903100105 81 90 3.0 7.0 0.00 0.00 0.00 91 1013.5
20260903095536 81 101 1.0 4.0 0.00 0.00 0.00 91 1013.5
20260903095036 81 107 2.0 5.0 0.00 0.00 0.00 92 1013.6
20260903094605 81 0 2.0 6.0 0.00 0.00 0.00 92 1013.5
20260903094040 81 22 1.0 6.0 0.00 0.00 0.00 92 1013.5
20260903093541 81 71 1.0 7.0 0.00 0.00 0.00 92 1013.5
20260903093129 81 127 2.0 7.0 0.00 0.00 0.00 92 1013.6
20260903092539 81 108 2.0 8.0 0.00 0.00 0.00 93 1013.6
20260903092039 81 69 3.0 8.0 0.00 0.00 0.00 93 1013.6
20260903091556 81 76 3.0 7.0 0.00 0.00 0.00 93 1013.6
20260903091041 81 86 3.0 7.0 0.00 0.00 0.00 93 1013.8
20260903090536 81 61 2.0 6.0 0.00 0.00 0.00 93 1013.7
20260903090107 81 100 2.0 6.0 0.00 0.00 0.00 93 1013.7
20260903085539 81 85 2.0 7.0 0.00 0.00 0.00 94 1013.8
20260903085040 81 90 3.0 8.0 0.00 0.00 0.00 94 1014.0
20260903084559 81 106 2.0 11.0 0.00 0.00 0.00 94 1013.9
20260903084040 81 115 3.0 11.0 0.00 0.00 0.00 95 1014.0
20260903083540 81 78 4.0 10.0 0.00 0.00 0.00 95 1014.0
20260903083341 81 112 5.0 10.0 0.00 0.00 0.00 95 1014.1
20260903082537 81 67 4.0 9.0 0.00 0.00 0.00 95 1014.2
20260903082039 81 65 4.0 9.0 0.00 0.00 0.00 95 1014.2
20260903081556 81 64 3.0 9.0 0.00 0.00 0.00 95 1014.2
20260903081040 81 84 3.0 8.0 0.00 0.00 0.00 95 1014.2
20260903080540 81 91 2.0 8.0 0.00 0.00 0.00 95 1014.3
20260903080117 81 58 3.0 8.0 0.00 0.00 0.00 95 1014.3
20260903075536 81 103 2.0 8.0 0.00 0.00 0.00 96 1014.4
20260903075036 81 111 4.0 8.0 0.00 0.00 0.00 96 1014.4
20260903074621 81 103 4.0 8.0 0.00 0.00 0.00 96 1014.5
20260903074038 81 103 2.0 9.0 0.00 0.00 0.00 96 1014.6
20260903073540 81 92 3.0 9.0 0.00 0.00 0.00 96 1014.6
20260903073108 81 105 4.0 9.0 0.00 0.00 0.00 96 1014.6
20260903072539 82 107 3.0 7.0 0.00 0.00 0.00 96 1014.7
20260903072039 82 139 2.0 7.0 0.00 0.00 0.00 96 1014.6
20260903071609 82 101 2.0 7.0 0.00 0.00 0.00 96 1014.6
20260903071039 81 89 2.0 6.0 0.00 0.00 0.00 96 1014.6
20260903070542 81 127 1.0 6.0 0.00 0.00 0.00 96 1014.4
20260903070115 82 0 0.0 6.0 0.00 0.00 0.00 96 1014.4
20260903065541 81 109 2.0 6.0 0.00 0.00 0.00 96 1014.5
20260903065042 82 99 3.0 6.0 0.00 0.00 0.00 96 1014.5
20260903064557 82 114 2.0 6.0 0.00 0.00 0.00 95 1014.5
20260903064041 82 0 2.0 6.0 0.00 0.00 0.00 95 1014.6
20260903063541 82 96 2.0 6.0 0.00 0.00 0.00 95 1014.7
20260903063100 82 0 0.0 6.0 0.00 0.00 0.00 95 1014.7
20260903062542 82 0 2.0 6.0 0.00 0.00 0.00 95 1014.7
20260903062042 82 71 1.0 4.0 0.00 0.00 0.00 95 1014.7
20260903061602 82 0 1.0 6.0 0.00 0.00 0.00 95 1015.0
20260903061041 82 74 2.0 9.0 0.00 0.00 0.00 95 1015.0
20260903060545 82 115 4.0 9.0 0.00 0.00 0.00 95 1015.1
20260903055542 82 94 4.0 8.0 0.00 0.00 0.00 95 1015.3
20260903055041 82 86 2.0 8.0 0.00 0.00 0.00 95 1015.4
20260903054602 82 115 4.0 8.0 0.00 0.00 0.00 94 1015.6
20260903054042 82 117 3.0 8.0 0.00 0.00 0.00 94 1015.5
20260903053541 82 119 3.0 8.0 0.00 0.00 0.00 94 1015.5
20260903053105 82 142 2.0 8.0 0.00 0.00 0.00 94 1015.4
20260903052541 82 150 1.0 7.0 0.00 0.00 0.00 94 1015.2
20260903052042 82 0 2.0 7.0 0.00 0.00 0.00 94 1015.3
20260903051606 82 105 2.0 6.0 0.00 0.00 0.00 94 1015.4
20260903051040 83 157 0.0 8.0 0.00 0.00 0.00 94 1015.3
20260903050542 82 127 1.0 8.0 0.00 0.00 0.00 94 1015.2
20260903050105 82 103 5.0 8.0 0.00 0.00 0.00 94 1015.3
20260903045541 83 107 3.0 8.0 0.00 0.00 0.00 94 1015.3
20260903045042 83 114 4.0 9.0 0.00 0.00 0.00 94 1015.4
20260903044605 83 64 4.0 10.0 0.00 0.00 0.00 93 1015.3
20260903044041 83 94 5.0 11.0 0.00 0.00 0.00 93 1015.2
20260903043543 83 67 5.0 11.0 0.00 0.00 0.00 93 1015.2
20260903043103 83 78 3.0 10.0 0.00 0.00 0.00 92 1015.2
20260903042543 83 105 4.0 10.0 0.00 0.00 0.00 92 1015.0
20260903042041 83 106 1.0 9.0 0.00 0.00 0.00 92 1015.1
20260903041601 83 88 4.0 9.0 0.00 0.00 0.00 92 1015.1
20260903041044 84 24 4.0 9.0 0.00 0.00 0.00 92 1015.1
20260903040543 84 63 2.0 10.0 0.00 0.00 0.00 91 1015.0
20260903040109 84 63 4.0 10.0 0.00 0.00 0.00 91 1015.0
20260903035542 84 63 3.0 9.0 0.00 0.00 0.00 91 1015.1
20260903035041 84 91 3.0 10.0 0.00 0.00 0.00 91 1015.0
20260903034600 84 55 2.0 10.0 0.00 0.00 0.00 91 1015.0
20260903034038 84 5 4.0 12.0 0.00 0.00 0.00 90 1014.9
20260903033539 84 68 3.0 12.0 0.00 0.00 0.00 90 1014.9
20260903033124 84 56 3.0 9.0 0.00 0.00 0.00 90 1014.7
20260903032537 84 51 2.0 9.0 0.00 0.00 0.00 90 1014.7
20260903032039 84 82 3.0 11.0 0.00 0.00 0.00 90 1014.6
20260903031633 85 45 4.0 11.0 0.00 0.00 0.00 90 1014.6
20260903031037 85 80 5.0 14.0 0.00 0.00 0.00 90 1014.5
20260903030537 85 94 6.0 14.0 0.00 0.00 0.00 89 1014.4
20260903030100 85 13 3.0 11.0 0.00 0.00 0.00 89 1014.2
20260903025540 85 51 4.0 11.0 0.00 0.00 0.00 89 1014.1
20260903025036 85 12 5.0 11.0 0.00 0.00 0.00 89 1014.0
20260903024557 85 59 5.0 11.0 0.00 0.00 0.00 88 1014.0
20260903024040 86 53 5.0 12.0 0.00 0.00 0.00 88 1013.9
20260903023539 86 71 7.0 12.0 0.00 0.00 0.00 87 1014.0
20260903023104 86 46 4.0 11.0 0.00 0.00 0.00 87 1013.9
20260903022542 87 15 4.0 10.0 0.00 0.00 0.00 87 1014.0
20260903022036 87 63 4.0 10.0 0.00 0.00 0.00 87 1014.0
20260903021558 87 98 4.0 11.0 0.00 0.00 0.00 87 1013.9
20260903021040 87 36 3.0 13.0 0.00 0.00 0.00 87 1013.9
20260903020542 87 59 3.0 13.0 0.00 0.00 0.00 87 1013.7
20260903020059 87 49 2.0 10.0 0.00 0.00 0.00 87 1013.7
20260903015540 87 0 2.0 10.0 0.00 0.00 0.00 87 1013.7
20260903015043 88 243 2.0 10.0 0.00 0.00 0.00 87 1013.6
20260903014559 88 0 3.0 9.0 0.00 0.00 0.00 87 1013.6
20260903014040 88 40 1.0 9.0 0.00 0.00 0.00 87 1013.5
20260903013538 88 74 1.0 6.0 0.00 0.00 0.00 87 1013.5
20260903013057 88 53 1.0 8.0 0.00 0.00 0.00 87 1013.4
20260903012540 88 0 0.0 8.0 0.00 0.00 0.00 87 1013.4
20260903012039 88 338 1.0 8.0 0.00 0.00 0.00 86 1013.4
20260903011558 89 84 2.0 7.0 0.00 0.00 0.00 86 1013.3
20260903011039 89 0 0.0 6.0 0.00 0.00 0.00 86 1013.3
20260903010539 89 286 1.0 6.0 0.00 0.00 0.00 86 1013.3
20260903005539 89 0 2.0 8.0 0.00 0.00 0.00 86 1013.1
20260903005038 89 352 2.0 8.0 0.00 0.00 0.00 85 1013.1
20260903004557 89 332 2.0 8.0 0.00 0.00 0.00 85 1013.1
20260903004039 89 346 3.0 8.0 0.00 0.00 0.00 85 1013.2
20260903003540 89 325 3.0 9.0 0.00 0.00 0.00 84 1013.1
20260903003104 89 352 2.0 9.0 0.00 0.00 0.00 84 1013.0
20260903002543 89 329 1.0 10.0 0.00 0.00 0.00 84 1013.0
20260903002041 89 0 2.0 10.0 0.00 0.00 0.00 84 1013.0
20260903001605 90 11 2.0 7.0 0.00 0.00 0.00 83 1012.9
20260903001039 90 29 1.0 7.0 0.00 0.00 0.00 83 1012.9
20260903000543 90 352 2.0 10.0 0.00 0.00 0.00 83 1012.8
20260903000057 90 13 1.0 10.0 0.00 0.00 0.00 82 1012.8
20260902235541 90 273 3.0 9.0 0.00 0.00 0.00 82 1012.6
20260902235041 90 315 2.0 9.0 0.00 0.00 0.00 82 1012.6
20260902234602 90 336 1.0 12.0 0.00 0.00 0.00 81 1012.7
20260902234041 90 111 5.0 12.0 0.00 0.00 0.00 81 1012.7
20260902233543 91 22 4.0 11.0 0.00 0.00 0.00 81 1012.6
20260902233102 91 36 3.0 12.0 0.00 0.00 0.00 81 1012.7
20260902232544 91 5 4.0 12.0 0.00 0.00 0.00 80 1012.6
20260902232039 91 0 5.0 12.0 0.00 0.00 0.00 80 1012.6
20260902231607 91 329 4.0 12.0 0.00 0.00 0.00 80 1012.7
20260902231043 91 11 4.0 11.0 0.00 0.00 0.00 80 1012.6
20260902230540 92 314 5.0 14.0 0.00 0.00 0.00 80 1012.4
20260902230056 92 19 4.0 14.0 0.00 0.00 0.00 80 1012.4
20260902225543 92 342 6.0 12.0 0.00 0.00 0.00 80 1012.3
20260902225042 92 82 5.0 16.0 0.00 0.00 0.00 80 1012.4
20260902224605 92 317 2.0 16.0 0.00 0.00 0.00 80 1012.4
20260902224041 93 321 5.0 16.0 0.00 0.00 0.00 80 1012.4
20260902223539 93 310 3.0 12.0 0.00 0.00 0.00 80 1012.3
20260902223103 93 0 5.0 12.0 0.00 0.00 0.00 80 1012.2
20260902222540 94 315 4.0 12.0 0.00 0.00 0.00 80 1012.2
20260902222041 94 352 5.0 12.0 0.00 0.00 0.00 79 1012.3
20260902221601 94 347 4.0 11.0 0.00 0.00 0.00 79 1012.3
20260902221041 94 39 3.0 10.0 0.00 0.00 0.00 78 1012.3
20260902220541 94 288 3.0 10.0 0.00 0.00 0.00 78 1012.3
20260902215543 95 314 3.0 11.0 0.00 0.00 0.00 77 1012.4
20260902215040 95 61 3.0 11.0 0.00 0.00 0.00 75 1012.3
20260902214558 97 65 4.0 11.0 0.00 0.00 0.00 69 1012.4
20260902214040 97 40 5.0 11.0 0.00 0.00 0.00 68 1012.4
20260902213540 97 74 6.0 14.0 0.00 0.00 0.00 67 1012.4
20260902213103 97 360 3.0 14.0 0.00 0.00 0.00 67 1012.3
20260902212541 97 84 6.0 14.0 0.00 0.00 0.00 67 1012.3
20260902212041 97 84 6.0 12.0 0.00 0.00 0.00 67 1012.4
20260902211606 97 91 7.0 12.0 0.00 0.00 0.00 66 1012.4
20260902211039 97 136 6.0 14.0 0.00 0.00 0.00 66 1012.3
20260902210539 97 121 7.0 14.0 0.00 0.00 0.00 66 1012.5
20260902210109 98 47 7.0 15.0 0.00 0.00 0.00 65 1012.5
20260902205535 98 85 8.0 15.0 0.00 0.00 0.00 65 1012.5
20260902205042 98 36 8.0 15.0 0.00 0.00 0.00 65 1012.5
20260902204605 98 15 6.0 14.0 0.00 0.00 0.00 66 1012.6
20260902204039 97 55 6.0 14.0 0.00 0.00 0.00 66 1012.7
20260902203538 97 88 8.0 14.0 0.00 0.00 0.00 66 1012.7
20260902203127 98 132 6.0 14.0 0.00 0.00 0.00 65 1012.8
20260902202542 98 32 6.0 14.0 0.00 0.00 0.00 64 1012.9
20260902202039 98 74 7.0 15.0 0.00 0.00 0.00 63 1012.9
20260902201605 98 65 9.0 15.0 0.00 0.00 0.00 63 1013.1
20260902201036 99 98 7.0 15.0 0.00 0.00 0.00 64 1013.1
20260902200536 98 100 6.0 14.0 0.00 0.00 0.00 66 1013.1
20260902200100 98 101 8.0 15.0 0.00 0.00 0.00 66 1013.3
20260902195538 98 76 4.0 15.0 0.00 0.00 0.00 67 1013.3
20260902195036 98 90 8.0 17.0 0.00 0.00 0.00 67 1013.5
20260902194555 97 44 5.0 17.0 0.00 0.00 0.00 68 1013.5
20260902194039 98 60 6.0 17.0 0.00 0.00 0.00 68 1013.5
20260902193536 97 90 6.0 15.0 0.00 0.00 0.00 69 1013.5
20260902193101 97 80 8.0 15.0 0.00 0.00 0.00 69 1013.5
20260902192538 98 80 6.0 14.0 0.00 0.00 0.00 67 1013.7
20260902192043 97 79 8.0 14.0 0.00 0.00 0.00 68 1013.6
20260902191559 97 59 4.0 17.0 0.00 0.00 0.00 70 1013.8
20260902191039 96 90 8.0 17.0 0.00 0.00 0.00 71 1013.9
20260902190539 96 57 5.0 12.0 0.00 0.00 0.00 71 1014.0
20260902190059 96 69 7.0 12.0 0.00 0.00 0.00 71 1014.1
20260902185539 97 127 5.0 14.0 0.00 0.00 0.00 71 1014.1
20260902185035 96 85 5.0 14.0 0.00 0.00 0.00 72 1014.1
20260902184605 96 91 7.0 13.0 0.00 0.00 0.00 71 1014.2
20260902184036 96 92 7.0 11.0 0.00 0.00 0.00 73 1014.3
20260902183540 96 76 3.0 11.0 0.00 0.00 0.00 73 1014.4
20260902183125 95 83 6.0 11.0 0.00 0.00 0.00 74 1014.5
20260902182539 95 63 6.0 11.0 0.00 0.00 0.00 74 1014.5
20260902182044 95 78 5.0 10.0 0.00 0.00 0.00 74 1014.6
20260902181600 95 29 4.0 9.0 0.00 0.00 0.00 73 1014.5
20260902181038 96 61 2.0 9.0 0.00 0.00 0.00 73 1014.7
20260902180539 96 0 3.0 9.0 0.00 0.00 0.00 73 1014.7
20260902180056 95 75 2.0 8.0 0.00 0.00 0.00 73 1014.9
20260902175543 95 163 2.0 11.0 0.00 0.00 0.00 73 1014.9
20260902175041 94 194 3.0 11.0 0.00 0.00 0.00 74 1014.9
20260902174559 95 103 2.0 10.0 0.00 0.00 0.00 73 1015.0
20260902174042 94 330 4.0 10.0 0.00 0.00 0.00 74 1015.1
20260902173541 94 107 4.0 10.0 0.00 0.00 0.00 73 1015.1
20260902173100 93 181 4.0 10.0 0.00 0.00 0.00 75 1015.2
20260902172542 93 104 5.0 10.0 0.00 0.00 0.00 74 1015.3
20260902172046 93 105 2.0 10.0 0.00 0.00 0.00 74 1015.3
20260902171610 93 116 3.0 12.0 0.00 0.00 0.00 74 1015.4
20260902171040 93 102 5.0 12.0 0.00 0.00 0.00 74 1015.4
20260902170541 93 82 4.0 9.0 0.00 0.00 0.00 73 1015.4
20260902170107 93 74 3.0 11.0 0.00 0.00 0.00 74 1015.4
20260902165540 93 34 5.0 11.0 0.00 0.00 0.00 74 1015.4
20260902165040 93 67 1.0 7.0 0.00 0.00 0.00 75 1015.4
20260902164601 92 321 3.0 8.0 0.00 0.00 0.00 76 1015.3
20260902164041 92 126 4.0 8.0 0.00 0.00 0.00 74 1015.6
20260902163540 91 111 2.0 8.0 0.00 0.00 0.00 75 1015.7
20260902163123 90 0 2.0 8.0 0.00 0.00 0.00 76 1015.8
20260902162540 90 0 2.0 8.0 0.00 0.00 0.00 76 1015.8
20260902162040 90 80 2.0 6.0 0.00 0.00 0.00 76 1015.8
20260902161607 89 0 1.0 8.0 0.00 0.00 0.00 76 1015.9
20260902161041 90 117 2.0 8.0 0.00 0.00 0.00 76 1015.9
20260902160539 89 43 1.0 7.0 0.00 0.00 0.00 76 1015.8
20260902155539 89 0 2.0 7.0 0.00 0.00 0.00 76 1015.8
20260902155041 89 90 2.0 7.0 0.00 0.00 0.00 77 1015.8
20260902154600 89 53 2.0 7.0 0.00 0.00 0.00 78 1015.9
20260902154041 88 120 0.0 7.0 0.00 0.00 0.00 78 1015.9
20260902153542 88 105 1.0 7.0 0.00 0.00 0.00 78 1016.0
20260902153104 88 94 2.0 4.0 0.00 0.00 0.00 78 1016.0
20260902152541 87 202 1.0 4.0 0.00 0.00 0.00 79 1016.0
20260902152040 87 114 1.0 4.0 0.00 0.00 0.00 79 1016.1
20260902151604 86 277 0.0 3.0 0.00 0.00 0.00 80 1016.1
20260902151044 86 305 2.0 3.0 0.00 0.00 0.00 80 1016.1
20260902150541 85 0 0.0 4.0 0.00 0.00 0.00 81 1016.0
20260902150106 84 0 0.0 4.0 0.00 0.00 0.00 82 1016.0
20260902145540 84 230 0.0 5.0 0.00 0.00 0.00 82 1016.0
20260902145040 83 188 0.0 5.0 0.00 0.00 0.00 83 1016.1
20260902144603 83 186 1.0 6.0 0.00 0.00 0.00 83 1016.1
20260902144041 83 183 0.0 7.0 0.00 0.00 0.00 84 1016.2
20260902143545 83 206 2.0 7.0 0.00 0.00 0.00 83 1016.3
20260902143056 83 126 3.0 9.0 0.00 0.00 0.00 83 1016.4
20260902142544 83 186 4.0 9.0 0.00 0.00 0.00 83 1016.4
20260902142041 83 152 3.0 6.0 0.00 0.00 0.00 83 1016.2
20260902141555 83 189 2.0 5.0 0.00 0.00 0.00 83 1016.1
20260902141039 82 0 1.0 4.0 0.00 0.00 0.00 83 1015.9
20260902140541 82 0 0.0 4.0 0.00 0.00 0.00 84 1015.8
20260902140109 82 0 0.0 3.0 0.00 0.00 0.00 84 1015.8
20260902135541 81 266 0.0 3.0 0.00 0.00 0.00 84 1015.8
20260902135041 81 261 1.0 3.0 0.00 0.00 0.00 85 1015.7
20260902134601 81 0 1.0 3.0 0.00 0.00 0.00 85 1015.6
20260902134039 80 0 0.0 3.0 0.00 0.00 0.00 85 1015.6
20260902133542 80 0 0.0 2.0 0.00 0.00 0.00 86 1015.6
20260902133107 80 113 0.0 3.0 0.00 0.00 0.00 87 1015.7
20260902132540 80 0 0.0 6.0 0.00 0.00 0.00 87 1015.7
20260902132040 80 135 2.0 6.0 0.00 0.00 0.00 86 1015.7
20260902131601 80 105 2.0 4.0 0.00 0.00 0.00 86 1015.5
20260902131042 80 100 1.0 4.0 0.00 0.00 0.00 86 1015.4
20260902130541 79 0 0.0 4.0 0.00 0.00 0.00 86 1015.4
20260902130100 79 0 1.0 4.0 0.00 0.00 0.00 87 1015.4
20260902125540 79 46 0.0 4.0 0.00 0.00 0.00 87 1015.3
20260902125042 79 0 0.0 4.0 0.00 0.00 0.00 87 1015.4
20260902124559 78 0 0.0 0.0 0.00 0.00 0.00 87 1015.3
20260902124040 78 0 0.0 0.0 0.00 0.00 0.00 88 1015.3
20260902123543 78 0 0.0 0.0 0.00 0.00 0.00 89 1015.3
20260902123115 77 0 0.0 0.0 0.00 0.00 0.00 89 1015.3
20260902122540 77 0 0.0 0.0 0.00 0.00 0.00 90 1015.3
20260902122041 77 0 0.0 0.0 0.00 0.00 0.00 90 1015.3
20260902121600 77 0 0.0 1.0 0.00 0.00 0.00 90 1015.3
20260902121041 77 0 0.0 2.0 0.00 0.00 0.00 90 1015.3
20260902120539 77 0 0.0 3.0 0.00 0.00 0.00 90 1015.1
20260902120112 77 192 0.0 4.0 0.00 0.00 0.00 90 1015.1
20260902115544 77 0 1.0 4.0 0.00 0.00 0.00 90 1014.9
20260902115040 77 165 1.0 4.0 0.00 0.00 0.00 90 1014.8
20260902114600 77 86 2.0 6.0 0.00 0.00 0.00 89 1014.7
20260902114044 77 108 1.0 8.0 0.00 0.00 0.00 89 1014.5
20260902113540 77 0 3.0 8.0 0.00 0.00 0.00 89 1014.5